This is the latest recevied weather packets stored in our database for station/object K4GDX. If no packets are shown the sender has not sent any weather packets the latest 10 day(s).
| Time | Temp. | Humidity | Pressure | Rain* | Wind** | Luminosity | Snow |
|---|---|---|---|---|---|---|---|
| 1776948651 | 18.33° C | 94% | 1019.7 hPa | 0 mm | - | 352 W/m² | - |
| 1776948350 | 18.33° C | 93% | 1019.8 hPa | 0 mm | - | 329 W/m² | - |
| 1776948046 | 18.33° C | 94% | 1019.7 hPa | 0 mm | - | 301 W/m² | - |
| 1776947745 | 17.78° C | 94% | 1019.7 hPa | 0 mm | - | 279 W/m² | - |
| 1776947444 | 17.78° C | 94% | 1019.7 hPa | 0 mm | - | 264 W/m² | - |
| 1776947145 | 17.78° C | 95% | 1019.7 hPa | 0 mm | - | 243 W/m² | - |
| 1776946844 | 17.78° C | 95% | 1019.8 hPa | 0 mm | - | 230 W/m² | - |
| 1776946540 | 17.22° C | 95% | 1019.8 hPa | 0 mm | - | 213 W/m² | - |
| 1776946238 | 17.22° C | 95% | 1019.8 hPa | 0 mm | - | 197 W/m² | - |
| 1776945932 | 16.67° C | 95% | 1019.7 hPa | 0 mm | - | 178 W/m² | - |
| 1776945632 | 16.67° C | 95% | 1019.7 hPa | 0 mm | - | 156 W/m² | - |
| 1776945329 | 16.11° C | 95% | 1019.7 hPa | 0 mm | - | 139 W/m² | - |
| 1776945028 | 15.56° C | 95% | 1019.7 hPa | 0 mm | - | 125 W/m² | - |
| 1776944727 | 15° C | 95% | 1019.6 hPa | 0 mm | - | 104 W/m² | - |
| 1776944426 | 14.44° C | 94% | 1019.6 hPa | 0 mm | - | 88 W/m² | - |
| 1776944117 | 13.89° C | 94% | 1019.6 hPa | 0 mm | - | 70 W/m² | - |
| 1776943819 | 13.89° C | 94% | 1019.5 hPa | 0 mm | - | 56 W/m² | - |
| 1776943516 | 13.89° C | 93% | 1019.5 hPa | 0 mm | - | 19 W/m² | - |
| 1776943208 | 13.89° C | 93% | 1019.4 hPa | 0 mm | - | 16 W/m² | - |
| 1776942907 | 13.89° C | 93% | 1019.4 hPa | 0 mm | - | 14 W/m² | - |
| 1776942607 | 13.89° C | 93% | 1019.4 hPa | 0 mm | - | 12 W/m² | - |
| 1776942308 | 14.44° C | 93% | 1019.3 hPa | 0 mm | - | 11 W/m² | - |
| 1776942006 | 14.44° C | 93% | 1019.2 hPa | 0 mm | - | 9 W/m² | - |
| 1776941702 | 15° C | 93% | 1019.1 hPa | 0 mm | - | 5 W/m² | - |
| 1776941405 | 15° C | 93% | 1019.1 hPa | 0 mm | - | 0 W/m² | - |
* Rain latest hour (hover to see other rain measurements)
** Current wind speed in m/s (hover to see current wind gust speed)